Location: Cutler
(25.6150°N, 80.3110°W)
Time: 13:06:27
(UTC-05:00)

Vanguard 1 - Pass Details

Date: 30 January 2018
Orbit: 650 x 3833 km, 34.2° (Epoch: 24 February)

Event Time Altitude Azimuth Distance (km) Brightness Sun altitude
Rises 03:24:59 0° 291° (WNW) 4,394 - -49.8°
Reaches altitude 10° 03:27:23 10° 288° (WNW) 3,709 - -49.2°
Maximum altitude 03:37:25 64° 209° (SSW) 2,489 - -47.0°
Exits shadow 03:40:03 57° 171° (S) 2,813 12.1 -46.4°
Drops below altitude 10° 03:55:58 10° 133° (SE) 6,427 14.6 -42.8°
Sets 04:01:46 0° 131° (SE) 7,736 15.2 -41.5°
